This is the latest recevied weather packets stored in our database for station/object KG5EO. If no packets are shown the sender has not sent any weather packets the latest 1 day(s).
| Time | Temp. | Humidity | Pressure | Rain* | Wind** | Luminosity | Snow |
|---|---|---|---|---|---|---|---|
| 1778029578 | 24.44° C | 25% | 40.9 hPa | 0 mm | 1.79 m/s, 245° | - | - |
| 1778029278 | 24.44° C | 25% | 40.9 hPa | 0 mm | 2.24 m/s, 253° | - | - |
| 1778028977 | 24.44° C | 24% | 40.9 hPa | 0 mm | 0.89 m/s, 284° | - | - |
| 1778028677 | 24.44° C | 24% | 40.9 hPa | 0 mm | 4.02 m/s, 295° | - | - |
| 1778028378 | 24.44° C | 25% | 40.9 hPa | 0 mm | 1.79 m/s, 295° | - | - |
| 1778028077 | 24.44° C | 24% | 40.9 hPa | 0 mm | 2.68 m/s, 333° | - | - |
| 1778027777 | 24.44° C | 25% | 40.9 hPa | 0 mm | 3.13 m/s, 271° | - | - |
| 1778027477 | 24.44° C | 25% | 40.9 hPa | 0 mm | 1.79 m/s, 264° | - | - |
| 1778027177 | 24.44° C | 26% | 40.9 hPa | 0 mm | 3.58 m/s, 269° | - | - |
| 1778026877 | 25° C | 26% | 40.9 hPa | 0 mm | 1.79 m/s, 279° | - | - |
| 1778026576 | 25° C | 25% | 40.9 hPa | 0 mm | 2.68 m/s, 237° | - | - |
| 1778026276 | 25° C | 25% | 40.9 hPa | 0 mm | 4.92 m/s, 272° | - | - |
| 1778025976 | 25° C | 25% | 40.9 hPa | 0 mm | 2.68 m/s, 274° | - | - |
| 1778025676 | 25° C | 25% | 40.9 hPa | 0 mm | 3.13 m/s, 292° | - | - |
| 1778025376 | 25° C | 26% | 40.9 hPa | 0 mm | 0.89 m/s, 262° | - | - |
| 1778025075 | 25° C | 25% | 40.9 hPa | 0 mm | 1.79 m/s, 265° | - | - |
| 1778024775 | 25° C | 25% | 40.9 hPa | 0 mm | 2.68 m/s, 307° | - | - |
| 1778024476 | 25° C | 25% | 40.9 hPa | 0 mm | 1.34 m/s, 254° | - | - |
| 1778024175 | 25° C | 26% | 40.9 hPa | 0 mm | 2.24 m/s, 280° | - | - |
| 1778023875 | 25° C | 26% | 40.9 hPa | 0 mm | 1.79 m/s, 256° | - | - |
| 1778023575 | 25° C | 26% | 40.9 hPa | 0 mm | 4.92 m/s, 306° | - | - |
| 1778023275 | 25° C | 26% | 40.9 hPa | 0 mm | 2.68 m/s, 289° | - | - |
| 1778022974 | 25° C | 26% | 40.9 hPa | 0 mm | 3.13 m/s, 271° | - | - |
| 1778022674 | 25° C | 26% | 40.9 hPa | 0 mm | 2.68 m/s, 230° | - | - |
| 1778022374 | 25° C | 26% | 40.9 hPa | 0 mm | 2.24 m/s, 210° | - | - |
* Rain latest hour (hover to see other rain measurements)
** Current wind speed in m/s (hover to see current wind gust speed)